カタログに戻る

ONEWEB-0138

運用中通信PO
NORAD 47284·PAYLOAD·🇬🇧 United Kingdom

打ち上げ Dec 18, 2020 から Vostochny Cosmodrome

Loading…

次のパス (今後24時間)

TLE

最新Source: CelesTrak SupGP

元期: Sep 14, 2026, 22:36 UTC

1 47284C 20100AC  26257.94183287 -.00001396  00000+0 -38857-2 0  2572
2 47284  87.8983 332.8495 0001715  95.8906 298.5486 13.12443455    10

AllMySatでONEWEB-0138をリアルタイム追跡

Download on the App Store